Location: New Mesquite
(33.1168°N, 96.4336°W)
Time: 19:02:53
(UTC+00:00)

Cosmos 1538 Rocket - Pass Details

Date: 08 July 2022
Orbit: 752 x 791 km, 74.0° (Epoch: 07 August)

Event Time Altitude Azimuth Distance (km) Brightness Sun altitude
Exits shadow 08:45:14 - 132° (SE) 2,686 6.7 -25.9°
Reaches altitude 10° 08:47:23 10° 113° (ESE) 2,296 6.6 -25.6°
Maximum altitude 08:48:58 11° 95° (E) 2,200 6.7 -25.4°
Drops below altitude 10° 08:50:34 10° 76° (ENE) 2,293 7.1 -25.2°
Sets 08:54:43 0° 44° (NE) 3,216 8.6 -24.7°
